Погода в Кидеро

Россия / Республика Дагестан     42°11′38″N   45°57′18″E
темп.,
°C
ветер,
м/с
пор.,
м/с
влажн.,
%
обл.,
%
осадки,
мм/ч
давл.,
гПа
погр.,
м
5 августа, чт
чт500:00+9в118794 1.1 102310
03:00+10вюв118612 1.4 102112
06:00+10вюв01821 0.0 102213
09:00+17ююз22481 0.0 10191089
12:00+19ююз324350 0.2 10182312
15:00+19ююз224480 0.6 10171971
18:00+16юв116794 0.8 101824
21:00+10в2287100 2.1 102240
6 августа, пт
пт600:00+9юв117978 0.0 102112
03:00+8юв11750 0.0 102011
06:00+10юв11710 0.0 101914
09:00+17ю23400 0.0 10171310
12:00+19ююз32373 0.0 10161912
15:00+19ююз32384 0.0 10151774
18:00+16ююз22580 0.0 101553
21:00+10ю11620 0.0 101813
7 августа, сб
сб700:00+9ююв116015 0.0 101812
03:00+8ю11651 0.0 101714
06:00+10ююв11611 0.0 101618
09:00+18ююз33374 0.0 1014740
12:00+20ююз333719 0.0 10121360
15:00+20ю33390 0.0 10121425
18:00+17ююз22590 0.0 101233
21:00+11ю2263100 0.0 101715
8 августа, вс
вс800:00+11ю225899 0.0 101820
03:00+10юв126411 0.0 101616
06:00+12юз116631 0.0 101717
09:00+20ююз234316 0.0 1014915
12:00+22ююз35382 0.0 10142112
15:00+22ююз343896 0.0 10142237
18:00+17юв116433 0.1 101740
21:00+12юв116518 0.1 101911
9 августа, пн
пн900:00+12ююв11645 0.0 102015
03:00+11вюв11705 0.1 101912
06:00+11юв118284 0.7 102016
09:00+18ю346097 1.2 1019573
12:00+20ю34475 1.0 10181539
15:00+21ю334332 1.3 10161674
18:00+17ююз116596 0.3 101945
21:00+13зсз1271100 0.4 102226